Location: Newark
(13.8625°N, 100.5144°E)
Time: 11:42:27
(UTC+00:00)

Envisat - Pass Details

Date: 02 April 2020
Orbit: 764 x 766 km, 98.1° (Epoch: 02 June)

Event Time Altitude Azimuth Distance (km) Brightness Sun altitude
Rises 22:37:49 0° 36° (NE) 3,223 7.0 -9.2°
Reaches altitude 10° 22:40:44 10° 54° (NE) 2,296 6.6 -8.5°
Maximum altitude 22:44:20 20° 99° (E) 1,732 6.0 -7.6°
Drops below altitude 10° 22:47:54 10° 145° (SE) 2,294 5.9 -6.8°
Sets 22:50:48 0° 162° (SSE) 3,219 6.4 -6.1°
